Location: Mlada Boleslav
(50.4170°N, 14.9000°E)
Time: 14:46:26
(UTC+02:00)

ISS - Visible Passes

Search period start: 17 July 2025 00:00
Search period end: 27 July 2025 00:00
Orbit: 415 x 418 km, 51.6° (Epoch: 17 July)

Date Brightness Start Highest point End Pass type
(mag) Time Alt. Az. Time Alt. Az. Time Alt. Az.
17 Jul -2.9 00:22:48 10° W 00:25:24 35° SW 00:25:24 35° SW visible
17 Jul -3.5 21:57:38 10° W 22:00:59 71° N 22:04:20 10° E visible
17 Jul -3.6 23:34:26 10° WNW 23:37:43 53° SSW 23:38:30 41° SSE visible
18 Jul -3.8 22:46:05 10° WNW 22:49:26 72° SSW 22:51:38 20° ESE visible
19 Jul -1.6 00:23:20 10° W 00:24:31 16° WSW 00:24:31 16° WSW visible
19 Jul -3.8 21:57:46 10° WNW 22:01:07 90° SW 22:04:29 10° ESE visible
19 Jul -2.6 23:34:43 10° W 23:37:38 28° SSW 23:37:41 28° SSW visible
20 Jul -3.1 22:46:15 10° W 22:49:24 40° SSW 22:50:54 24° SSE visible
21 Jul -3.5 21:57:50 10° WNW 22:01:07 56° SSW 22:04:08 12° SE visible
21 Jul -1.5 23:35:34 10° WSW 23:37:01 14° SW 23:37:01 14° SW visible
22 Jul -2.0 22:46:37 10° W 22:49:11 20° SW 22:50:17 17° S visible
23 Jul -2.5 21:57:59 10° W 22:00:58 29° SSW 22:03:35 12° SSE visible
25 Jul -1.4 21:58:39 10° WSW 22:00:34 14° SW 22:02:28 10° S visible
